Retour au catalogue

STARLINK-35284

ActifCommunicationsVLEO
NORAD 65741·PAYLOAD·🇺🇸 United States

Lancé Sep 25, 2025 depuis Cape Canaveral Space Force Station

Loading…

Prochains Passages (prochaines 24 heures)

TLE

FraisSource: CelesTrak SupGP

Époque: Sep 15, 2026, 03:13 UTC

1 65741C 25216H   26258.13451389 -.00001382  00000+0 -40830-4 0  2588
2 65741  53.1573 170.7847 0001339  88.9710 102.6922 15.34382068    15

Suivez STARLINK-35284 en temps réel avec AllMySat

Download on the App Store